This is the latest recevied weather packets stored in our database for station/object NZ3C. If no packets are shown the sender has not sent any weather packets the latest 10 day(s).
| Time | Temp. | Humidity | Pressure | Rain* | Wind** | Luminosity | Snow |
|---|---|---|---|---|---|---|---|
| 1777597827 | 14.44° C | 93% | 1012 hPa | 0 mm | - | 0 W/m² | - |
| 1777597521 | 14.44° C | 93% | 1011.9 hPa | 0 mm | - | 0 W/m² | - |
| 1777597218 | 14.44° C | 93% | 1012 hPa | 0 mm | - | 0 W/m² | - |
| 1777596913 | 14.44° C | 92% | 1011.7 hPa | 0 mm | - | 0 W/m² | - |
| 1777596610 | 15° C | 92% | 1011.9 hPa | 0 mm | - | 0 W/m² | - |
| 1777596306 | 15° C | 92% | 1011.5 hPa | 0 mm | - | 0 W/m² | - |
| 1777596005 | 15° C | 91% | 1011.6 hPa | 0 mm | - | 0 W/m² | - |
| 1777595698 | 15° C | 90% | 1011.7 hPa | 0 mm | - | 0 W/m² | - |
| 1777595394 | 15.56° C | 89% | 1011.7 hPa | 0 mm | - | 0 W/m² | - |
| 1777595091 | 15.56° C | 89% | 1011.6 hPa | 0 mm | - | 0 W/m² | - |
| 1777594787 | 15.56° C | 87% | 1011.5 hPa | 0 mm | - | 0 W/m² | - |
| 1777594484 | 16.11° C | 87% | 1011.3 hPa | 0 mm | - | 0 W/m² | - |
| 1777594179 | 16.11° C | 86% | 1011.2 hPa | 0 mm | - | 0 W/m² | - |
| 1777593876 | 16.67° C | 84% | 1011.2 hPa | 0 mm | - | 1 W/m² | - |
| 1777593572 | 16.67° C | 84% | 1011.2 hPa | 0 mm | - | 2 W/m² | - |
| 1777593272 | 17.22° C | 81% | 1011.3 hPa | 0 mm | - | 4 W/m² | - |
| 1777592967 | 17.22° C | 79% | 1011.1 hPa | 0 mm | - | 7 W/m² | - |
| 1777592662 | 17.78° C | 78% | 1011.3 hPa | 0 mm | - | 11 W/m² | - |
| 1777592358 | 18.33° C | 75% | 1011.3 hPa | 0 mm | - | 15 W/m² | - |
| 1777592053 | 18.33° C | 73% | 1011 hPa | 0 mm | - | 20 W/m² | - |
| 1777591751 | 18.89° C | 73% | 1011 hPa | 0 mm | - | 24 W/m² | - |
| 1777591446 | 19.44° C | 74% | 1010.9 hPa | 0 mm | - | 30 W/m² | - |
| 1777591143 | 19.44° C | 73% | 1010.7 hPa | 0 mm | - | 32 W/m² | - |
| 1777590837 | 19.44° C | 72% | 1010.7 hPa | 0 mm | - | 40 W/m² | - |
| 1777590534 | 20° C | 68% | 1010.5 hPa | 0 mm | - | 34 W/m² | - |
* Rain latest hour (hover to see other rain measurements)
** Current wind speed in m/s (hover to see current wind gust speed)